Location: Zerbst
(51.9650°N, 12.0766°E)
Time: 22:40:51
(UTC+02:00)

ISS - Pass Details

Date: 20 May 2017
Orbit: 401 x 408 km, 51.6° (Epoch: 25 June)

Event Time Altitude Azimuth Distance (km) Brightness Sun altitude
Exits shadow 02:10:42 40° 239° (WSW) 614 -3.3 -16.8°
Maximum altitude 02:11:42 70° 168° (SSE) 437 -3.9 -16.7°
Drops below altitude 10° 02:14:59 10° 83° (E) 1,470 -0.7 -16.6°
Sets 02:17:05 0° 81° (E) 2,330 0.4 -16.5°
